SBIRS GEO-2 (USA 241)

Last updated on Tue Oct 08 2024 00:02:39 GMT+0000 (Coordinated Universal Time)

1 39120U 13011A 24281.32098365 -.00000244 00000+0 00000+0 0 9993 2 39120 3.1954 48.8147 0001974 161.9160 243.2937 1.00271278 42347
UTC large
Height (km)
Speed (km/s)
/
Latitude / Longitude
Inclination (degrees)
Orbital Period (minutes)
Azimuth
Elevation
Range (km)
Doppler Factor

Next 0 passes for location: London (51.5072 / 0.1276)

Sorry there are no passes over London.